Last 30 Days

Alpine-Roundhouse Btm 6950'

Daily Data | America/Los_Angeles
as of 2/18/20 9:29 AM PST
Date Daily Max Temp (°F) Max Temp Time Daily Min Temp (°F) Min Temp Time Wind Spd (mph) Daily Max Wind (mph) Max Wind Dir (°) Max Wind Time Daily Rain (In) Seasonal Rainfall (In) SnowDepth (in) Max RH (%) Min RH (%) Wet Bulb (°F) WetB Hrs <28F (hrs) Min Press (inHg) Time of Min Press Bat Volt Min Day (V)
2/17/20 45.1 1458 25.0 2323 2.1 12.4 NNW | 333 1149 0.00 0.00 44.0 90 12 26.2 15.8 30.07 1940 13.1
2/16/20 43.9 1500 31.7 2306 4.5 29.9 SSE | 160 0653 0.00 0.00 44.4 88 39 32.9 0.0 30.11 0545 13.1
2/15/20 44.4 1134 32.0 0205 5.8 23.6 SSE | 164 1531 0.00 0.00 44.3 72 29 31.5 0.6 30.11 0415 13.1
2/14/20 45.5 1456 31.7 0227 3.0 16.8 SSW | 196 0306 0.00 0.00 44.8 67 30 30.6 4.0 30.03 0340 13.1
2/13/20 47.2 1157 28.1 0702 3.1 15.0 SE | 137 1525 0.00 0.00 44.8 71 29 29.7 9.0 30.03 1655 13.1
2/12/20 45.4 1455 28.0 0814 2.0 12.0 N | 11 1205 0.00 0.00 45.0 72 29 28.3 13.3 30.06 1650 13.1
2/11/20 45.5 1457 22.1 0634 2.3 15.2 NW | 326 0018 0.00 0.00 45.4 74 26 26.4 16.3 30.11 2245 13.1
2/10/20 40.0 1250 29.1 2350 2.9 14.6 N | 2 1251 0.00 0.00 45.9 64 35 27.9 6.2 30.11 1510 13.2
2/9/20 31.3 1523 20.6 0646 6.7 29.6 NW | 322 0743 0.00 12.89 46.0 84 38 21.1 24.0 29.95 0445 13.2
2/8/20 43.8 1054 22.7 2347 6.3 31.0 SSE | 150 1201 0.00 12.89 46.1 78 29 30.0 4.5 29.94 1945 13.1
2/7/20 51.9 1508 31.0 0713 2.6 18.5 SSE | 148 2342 0.00 12.89 46.2 53 15 31.0 8.4 30.13 2235 13.1
2/6/20 49.8 1151 31.5 0129 2.0 12.3 NNE | 14 1308 0.00 12.89 46.4 93 27 32.7 0.0 30.15 1730 13.2
2/5/20 44.1 1340 20.9 0137 1.7 15.3 N | 1 1141 0.00 12.89 47.5 92 44 29.8 7.2 30.15 0125 13.2
2/4/20 27.4 1513 12.8 0829 2.7 18.1 NE | 46 0529 0.00 12.89 48.3 64 34 15.2 24.0 30.01 0100 13.2
2/3/20 22.3 1503 9.1 0600 4.3 22.1 NNW | 340 1648 0.01 12.89 48.7 88 22 12.4 24.0 29.89 0605 13.2
2/2/20 44.8 0012 13.7 2241 4.2 23.9 SE | 138 0653 0.15 12.88 49.2 94 35 25.6 11.5 29.80 1350 13.2
2/1/20 58.8 1142 37.6 0642 2.7 16.5 SSE | 160 2341 0.00 12.73 47.3 41 5 32.5 0.9 30.18 2340 13.2
1/31/20 55.2 1409 33.1 0029 2.0 7.6 SW | 226 1937 0.00 12.73 48.0 94 25 34.6 0.0 30.31 0115 13.1
1/30/20 45.7 1515 32.7 2200 1.3 13.4 SSW | 206 0253 0.00 12.73 48.6 97 69 36.3 0.0 30.18 0350 13.1
1/29/20 41.4 2310 22.5 0511 1.5 9.0 N | 354 1355 0.00 12.73 49.7 96 33 27.2 11.2 30.18 1440 13.2
1/28/20 35.1 1248 25.8 2252 5.3 26.9 SSE | 155 1433 0.02 12.73 49.9 92 36 28.0 11.3 30.15 1555 13.2
1/27/20 37.2 1251 29.3 0001 4.9 18.3 SSE | 162 1319 0.01 12.71 50.4 88 36 31.1 2.6 21.55 0001 13.1
1/26/20 39.4 0225 29.1 2350 0.0 0.0 N | 0 0001 1.21 12.70 50.9 100 86 33.5 0.0 21.55 0001 13.1
1/25/20 49.8 1150 34.1 0629 0.0 23.9 SSW | 201 0950 0.15 11.49 48.9 96 61 38.6 0.0 21.55 1420 13.2
1/24/20 39.4 0101 35.6 0414 4.5 32.0 NW | 304 0915 0.20 11.34 50.8 98 39 34.7 0.0 30.07 0550 13.2
1/23/20 46.3 1337 31.5 0559 2.0 17.1 SSE | 155 2122 0.12 11.14 52.3 96 61 35.7 0.0 30.12 2350 13.2
1/22/20 39.6 1407 32.8 2350 3.7 23.9 SSE | 156 0330 0.06 11.02 53.7 97 77 33.6 0.0 30.05 0035 13.1
1/21/20 34.2 2336 30.1 0754 5.8 30.1 S | 177 1205 0.33 10.96 55.4 98 81 30.7 0.0 29.95 0550 13.1
1/20/20 44.6 1141 31.9 2233 4.1 17.3 SSE | 165 0043 0.00 10.63 52.6 81 29 31.2 0.0 29.99 1720 13.2
1/19/20 45.6 2150 31.1 0457 2.2 47.0 SSW | 192 0953 0.00 10.63 53.8 63 27 30.5 7.9 30.12 2345 13.2
Max 58.8 - 37.6 - 6.7 47.0 - - 1.21 - 55.4 100 86 38.6 24.0 30.31 - 13.2
Avg - - - - 3.2 - - - - - 48.3 - - 29.6 - - - -
Min 22.3 - 9.1 - 0.0 0.0 - - 0.00 - 44.0 41 5 12.4 0.0 21.55 - 13.1